Ames, IA

3:57 AM CDT on June 25, 2017 (GMT -0500)
Ames Municipal

Weather History for KAMW - August, 2013

Change the Weather History Date:

Thursday, August 22, 2013

  Actual Average Record
Temperature  
Mean Temperature 76 °F 70 °F  
Max Temperature 86 °F 81 °F 93 °F (2012)
Min Temperature 66 °F 59 °F 48 °F (1997)
Degree Days  
Heating Degree Days 0 0  
Month to date heating degree days 5 0  
Since 1 June heating degree days 56 28  
Since 1 July heating degree days 14 4  
Cooling Degree Days 11 6  
Month to date cooling degree days 111 156  
Year to date cooling degree days 613 642  
Since 1 June cooling degree days 558 593  
Growing Degree Days 25 (Base 50)    
Moisture  
Dew Point 67 °F    
Average Humidity 72    
Maximum Humidity 93    
Minimum Humidity 51    
Precipitation  
Precipitation 0.00 in 0.14 in 1.87 in (1978)
Month to date precipitation 0.79 3.13  
Sea Level Pressure  
Sea Level Pressure 30.04 in    
Wind  
Wind Speed 5 mph (South)    
Max Wind Speed 12 mph    
Max Gust Speed 15 mph    
Visibility 9 miles    
Events      
T = Trace of Precipitation, MM = Missing Value Source: NWS Daily Summary

Daily Weather History Graph

Daily Weather History Graph

Search for Another Location

Airport or City:

Trip Planner

Search our weather history database for the weather conditions in past years. The results will help you decide how hot, cold, wet, or windy it might be!

Date:

Astronomy

Aug. 22, 2013 Rise Set
Actual Time 6:29 AM CDT 8:03 PM CDT
Civil Twilight 6:00 AM CDT 8:33 PM CDT
Nautical Twilight 5:24 AM CDT 9:08 PM CDT
Astronomical Twilight 4:46 AM CDT 9:46 PM CDT
Moon 8:44 PM CDT (8/22) 8:22 AM CDT (8/22)
Length of Visible Light 14h 32m
Length of Day
13h 33m
Waning Gibbous, 96% of the Moon is Illuminated
Aug 22
Waning Gibbous
Aug 28
Last Quarter
Sep 5
New
Sep 12
First Quarter
Sep 19
Full

Hourly Weather History & Observations

Time (CDT) Temp. Heat Index Dew Point Humidity Pressure Visibility Wind Dir Wind Speed Gust Speed Precip Events Conditions
12:53 AM 71.1 °F - 66.9 °F 87% 29.97 in 7.0 mi Calm Calm - N/A   Clear
1:53 AM 71.1 °F - 66.9 °F 87% 29.98 in 8.0 mi Calm Calm - N/A   Clear
2:53 AM 73.9 °F - 66.9 °F 79% 29.98 in 9.0 mi SW 5.8 mph - N/A   Clear
3:53 AM 75.0 °F - 68.0 °F 79% 29.99 in 9.0 mi WSW 8.1 mph - N/A   Mostly Cloudy
4:53 AM 73.9 °F - 68.0 °F 82% 30.02 in 9.0 mi WNW 8.1 mph - N/A   Clear
5:53 AM 72.0 °F - 66.0 °F 81% 30.02 in 10.0 mi NW 4.6 mph - N/A   Clear
6:53 AM 71.1 °F - 66.0 °F 84% 30.04 in 10.0 mi NW 3.5 mph - N/A   Clear
7:53 AM 70.0 °F - 66.0 °F 87% 30.04 in 10.0 mi SE 3.5 mph - N/A   Clear
8:53 AM 72.0 °F - 66.9 °F 84% 30.06 in 10.0 mi ESE 3.5 mph - N/A   Clear
9:53 AM 72.0 °F - 66.0 °F 81% 30.06 in 10.0 mi SSE 6.9 mph - N/A   Partly Cloudy
10:53 AM 75.0 °F - 66.0 °F 73% 30.07 in 10.0 mi SE 4.6 mph - N/A   Clear
11:53 AM 77.0 °F - 66.9 °F 71% 30.06 in 10.0 mi SSE 6.9 mph - N/A   Clear
12:53 PM 78.1 °F - 66.9 °F 68% 30.05 in 10.0 mi South 11.5 mph - N/A   Clear
1:53 PM 81.0 °F 83.3 °F 66.9 °F 62% 30.06 in 10.0 mi SSW 10.4 mph - N/A   Clear
2:53 PM 84.0 °F 86.5 °F 66.9 °F 56% 30.05 in 10.0 mi Variable 3.5 mph - N/A   Clear
3:53 PM 84.9 °F 86.6 °F 64.9 °F 51% 30.04 in 10.0 mi SSE 3.5 mph - N/A   Scattered Clouds
4:53 PM 84.0 °F 87.8 °F 69.1 °F 61% 30.04 in 10.0 mi SSW 11.5 mph - N/A   Mostly Cloudy
5:53 PM 82.9 °F 85.8 °F 68.0 °F 60% 30.03 in 10.0 mi SW 8.1 mph - N/A   Scattered Clouds
6:53 PM 82.0 °F 84.9 °F 68.0 °F 62% 30.03 in 10.0 mi South 8.1 mph - N/A   Overcast
7:53 PM 77.0 °F - 68.0 °F 74% 30.03 in 10.0 mi SE 3.5 mph - N/A   Clear
8:53 PM 72.0 °F - 66.9 °F 84% 30.04 in 10.0 mi SE 3.5 mph - N/A   Clear
9:53 PM 70.0 °F - 66.9 °F 90% 30.06 in 9.0 mi SE 3.5 mph - N/A   Clear
10:53 PM 66.9 °F - 64.9 °F 93% 30.07 in 8.0 mi Calm Calm - N/A   Clear
11:53 PM 66.0 °F - 64.0 °F 93% 30.08 in 7.0 mi Calm Calm - N/A   Mostly Cloudy